Location: Carson
(33.8314°N, 118.2820°W)
Time: 12:20:50
(UTC+00:00)

NOSS 3-4 (C) - Pass Details

Date: 23 November 2020
Orbit: 879 x 1333 km, 63.4° (Epoch: 31 December)

Event Time Altitude Azimuth Distance (km) Brightness Sun altitude
Rises 13:35:47 0° 227° (SW) 3,464 6.1 -12.0°
Reaches altitude 10° 13:38:21 10° 234° (SW) 2,527 5.3 -11.5°
Maximum altitude 13:43:53 45° 306° (NW) 1,206 3.6 -10.4°
Drops below altitude 10° 13:49:42 10° 19° (NNE) 2,654 5.8 -9.3°
Sets 13:52:28 0° 25° (NNE) 3,656 6.6 -8.7°
